GW4405 Weather Reports


Display with metric or nautical units.
time (UTC)temp
F
wind
direction
speed
MPH
gust
MPH
rain 1hr
in
rain 24hr
in
rain mn
in
humidity
%
barometer
mb
20260507114926 77 337 2.0 3.0 0.00 0.00 0.00 73 1005.6
20260507114422 77 37 4.0 6.0 0.00 0.00 0.00 73 1005.7
20260507113920 77 13 3.0 4.0 0.00 0.00 0.00 73 1005.6
20260507113417 77 5 2.0 4.0 0.00 0.00 0.00 74 1005.6
20260507112914 77 352 4.0 6.0 0.00 0.00 0.00 74 1005.7
20260507112412 76 349 5.0 8.0 0.00 0.00 0.00 74 1005.8
20260507111909 76 191 4.0 4.0 0.00 0.00 0.00 74 1005.6
20260507111406 76 63 6.0 9.0 0.00 0.00 0.00 75 1005.5
20260507110902 76 13 4.0 8.0 0.00 0.00 0.00 75 1005.4
20260507110358 76 334 4.0 6.0 0.00 0.00 0.00 75 1005.5
20260507105855 76 23 8.0 13.0 0.00 0.00 0.00 75 1005.6
20260507105351 76 343 5.0 7.0 0.00 0.00 0.00 75 1005.4
20260507104848 76 39 5.0 7.0 0.00 0.00 0.00 75 1005.4
20260507104345 76 45 6.0 9.0 0.00 0.00 0.00 75 1005.4
20260507103841 76 9 3.0 4.0 0.00 0.00 0.00 75 1005.3
20260507103338 76 340 4.0 6.0 0.00 0.00 0.00 75 1005.2
20260507102834 76 12 4.0 8.0 0.00 0.00 0.00 74 1005.1
20260507102331 76 305 2.0 3.0 0.00 0.00 0.00 74 1005.4
20260507101827 76 25 7.0 9.0 0.00 0.00 0.00 74 1005.3
20260507101327 76 359 4.0 6.0 0.00 0.00 0.00 74 1005.3
20260507100824 76 48 7.0 11.0 0.00 0.00 0.00 74 1005.1
20260507100323 76 37 3.0 4.0 0.00 0.00 0.00 74 1005.5
20260507095821 77 172 3.0 4.0 0.00 0.00 0.00 73 1005.5
20260507095317 76 0 4.0 7.0 0.00 0.00 0.00 74 1005.3
20260507094814 76 36 6.0 13.0 0.00 0.00 0.00 73 1005.2
20260507094310 76 54 2.0 2.0 0.00 0.00 0.00 74 1005.2
20260507093807 77 11 5.0 8.0 0.00 0.00 0.00 73 1005.0
20260507093306 76 31 4.0 7.0 0.00 0.00 0.00 74 1005.2
20260507092804 76 22 3.0 4.0 0.00 0.00 0.00 74 1005.1
20260507092300 76 58 5.0 7.0 0.00 0.00 0.00 75 1005.2
20260507091756 76 45 3.0 4.0 0.00 0.00 0.00 75 1005.1
20260507091253 76 320 7.0 10.0 0.00 0.00 0.00 75 1005.1
20260507090753 76 28 4.0 7.0 0.00 0.00 0.00 75 1005.1
20260507090250 76 72 3.0 4.0 0.00 0.00 0.00 75 1005.1
20260507085747 76 66 6.0 8.0 0.00 0.00 0.00 74 1005.1
20260507085244 76 76 3.0 4.0 0.00 0.00 0.00 75 1005.1
20260507084741 76 347 7.0 10.0 0.00 0.00 0.00 75 1005.0
20260507084237 76 65 3.0 6.0 0.00 0.00 0.00 74 1004.9
20260507083735 77 47 2.0 3.0 0.00 0.00 0.00 73 1005.0
20260507083231 76 56 2.0 2.0 0.00 0.00 0.00 75 1004.9
20260507082728 76 45 4.0 6.0 0.00 0.00 0.00 74 1005.0
20260507082223 77 15 2.0 2.0 0.00 0.00 0.00 75 1005.1
20260507081720 76 65 2.0 2.0 0.00 0.00 0.00 75 1005.2
20260507081217 77 328 2.0 4.0 0.00 0.00 0.00 74 1005.1
20260507080713 77 84 2.0 3.0 0.00 0.00 0.00 75 1005.0
20260507080209 77 27 3.0 4.0 0.00 0.00 0.00 74 1004.9
20260507075705 77 129 2.0 2.0 0.00 0.00 0.00 73 1005.2
20260507075201 77 30 6.0 10.0 0.00 0.00 0.00 74 1005.3
20260507074658 78 37 6.0 9.0 0.00 0.00 0.00 72 1005.3
20260507074156 77 18 3.0 4.0 0.00 0.00 0.00 73 1005.2
20260507073652 78 18 7.0 13.0 0.00 0.00 0.00 72 1005.1
20260507073148 78 116 2.0 3.0 0.00 0.00 0.00 72 1005.3
20260507072647 78 93 2.0 4.0 0.00 0.00 0.00 71 1005.2
20260507072138 78 69 2.0 3.0 0.00 0.00 0.00 72 1005.2
20260507071636 78 20 4.0 4.0 0.00 0.00 0.00 70 1005.4
20260507071132 78 332 6.0 8.0 0.00 0.00 0.00 71 1005.3
20260507070629 79 323 2.0 3.0 0.00 0.00 0.00 69 1005.5
20260507070125 79 11 2.0 2.0 0.00 0.00 0.00 70 1005.3
20260507065621 80 188 3.0 4.0 0.00 0.00 0.00 68 1005.4
20260507065119 79 7 4.0 7.0 0.00 0.00 0.00 69 1005.5
20260507064616 80 27 2.0 3.0 0.00 0.00 0.00 68 1005.5
20260507064115 79 56 4.0 6.0 0.00 0.00 0.00 69 1005.5
20260507063612 80 17 4.0 4.0 0.00 0.00 0.00 67 1005.4
20260507063109 79 3 2.0 2.0 0.00 0.00 0.00 68 1005.6
20260507062605 80 45 3.0 4.0 0.00 0.00 0.00 67 1005.5
20260507062103 80 43 5.0 9.0 0.00 0.00 0.00 68 1005.4
20260507061601 80 353 3.0 6.0 0.00 0.00 0.00 67 1005.8
20260507061059 80 57 4.0 6.0 0.00 0.00 0.00 67 1005.8
20260507060557 80 320 3.0 4.0 0.00 0.00 0.00 67 1006.0
20260507060053 81 152 4.0 7.0 0.00 0.00 0.00 66 1005.8
20260507055553 80 169 2.0 3.0 0.00 0.00 0.00 68 1006.0
20260507055050 80 116 4.0 7.0 0.00 0.00 0.00 67 1006.0
20260507054546 80 354 4.0 4.0 0.00 0.00 0.00 69 1006.1
20260507054043 80 34 1.0 2.0 0.00 0.00 0.00 68 1006.3
20260507053541 80 38 2.0 2.0 0.00 0.00 0.00 69 1006.1
20260507053040 80 76 4.0 6.0 0.00 0.00 0.00 68 1006.2
20260507052537 80 94 6.0 7.0 0.00 0.00 0.00 69 1006.1
20260507052033 81 359 1.0 2.0 0.00 0.00 0.00 67 1006.1
20260507051531 80 58 2.0 3.0 0.00 0.00 0.00 69 1006.3
20260507051028 81 19 2.0 2.0 0.00 0.00 0.00 66 1006.5
20260507050525 81 33 4.0 6.0 0.00 0.00 0.00 67 1006.3
20260507050021 80 137 3.0 4.0 0.00 0.00 0.00 67 1006.5
20260507045518 81 26 3.0 4.0 0.00 0.00 0.00 67 1006.4
20260507045015 80 356 4.0 9.0 0.00 0.00 0.00 69 1006.4
20260507044512 81 31 3.0 4.0 0.00 0.00 0.00 68 1006.6
20260507044008 80 347 3.0 6.0 0.00 0.00 0.00 69 1006.5
20260507043504 81 48 4.0 6.0 0.00 0.00 0.00 68 1006.5
20260507043000 80 60 6.0 7.0 0.00 0.00 0.00 69 1006.6
20260507042458 81 31 2.0 3.0 0.00 0.00 0.00 68 1006.7
20260507041953 81 351 3.0 3.0 0.00 0.00 0.00 69 1006.8
20260507041450 81 11 2.0 3.0 0.00 0.00 0.00 69 1006.6
20260507040947 81 26 3.0 6.0 0.00 0.00 0.00 69 1006.7
20260507040443 81 42 3.0 4.0 0.00 0.00 0.00 68 1006.8
20260507035939 82 359 4.0 4.0 0.00 0.00 0.00 68 1006.9
20260507035436 82 81 2.0 3.0 0.00 0.00 0.00 67 1006.9
20260507034933 82 27 4.0 4.0 0.00 0.00 0.00 67 1006.7
20260507034429 81 18 3.0 6.0 0.00 0.00 0.00 67 1006.9
20260507033928 82 27 5.0 8.0 0.00 0.00 0.00 68 1007.0
20260507033425 81 348 3.0 6.0 0.00 0.00 0.00 69 1006.7
20260507032922 82 46 3.0 3.0 0.00 0.00 0.00 69 1007.0
20260507032419 81 87 5.0 7.0 0.00 0.00 0.00 70 1007.0
20260507031915 82 56 2.0 3.0 0.00 0.00 0.00 69 1007.1
20260507031412 81 17 4.0 6.0 0.00 0.00 0.00 70 1007.3
20260507030908 82 31 4.0 8.0 0.00 0.00 0.00 68 1006.9
20260507030406 82 51 3.0 4.0 0.00 0.00 0.00 69 1007.0
20260507025902 82 156 4.0 4.0 0.00 0.00 0.00 68 1007.1
20260507025400 82 153 2.0 3.0 0.00 0.00 0.00 68 1007.1
20260507024858 83 27 4.0 7.0 0.00 0.00 0.00 67 1007.0
20260507024355 82 14 3.0 6.0 0.00 0.00 0.00 68 1007.1
20260507023850 82 1 5.0 6.0 0.00 0.00 0.00 67 1007.1
20260507023347 82 23 6.0 8.0 0.00 0.00 0.00 69 1007.1
20260507022845 82 7 3.0 4.0 0.00 0.00 0.00 68 1007.0
20260507022341 82 20 3.0 6.0 0.00 0.00 0.00 68 1007.3
20260507021837 82 27 5.0 7.0 0.00 0.00 0.00 68 1007.2
20260507021332 83 47 5.0 6.0 0.00 0.00 0.00 68 1007.3
20260507020831 82 34 5.0 8.0 0.00 0.00 0.00 69 1007.2
20260507020327 83 16 4.0 8.0 0.00 0.00 0.00 68 1007.2
20260507015824 82 27 2.0 6.0 0.00 0.00 0.00 69 1007.1
20260507015322 82 57 3.0 6.0 0.00 0.00 0.00 68 1007.2
20260507014814 83 26 4.0 6.0 0.00 0.00 0.00 69 1007.3
20260507014310 82 344 2.0 3.0 0.00 0.00 0.00 68 1007.1
20260507013806 83 9 5.0 9.0 0.00 0.00 0.00 68 1007.5
20260507013303 83 28 4.0 6.0 0.00 0.00 0.00 68 1007.6
20260507012800 83 9 4.0 10.0 0.00 0.00 0.00 68 1007.6
20260507012256 83 356 4.0 6.0 0.00 0.00 0.00 68 1007.6
20260507011754 84 39 4.0 6.0 0.00 0.00 0.00 67 1007.7
20260507011250 83 277 4.0 6.0 0.00 0.00 0.00 67 1007.5
20260507010749 84 54 2.0 3.0 0.00 0.00 0.00 66 1007.5
20260507010246 84 316 4.0 4.0 0.00 0.00 0.00 66 1007.3
20260507005744 84 81 4.0 6.0 0.00 0.00 0.00 65 1007.5
20260507005240 84 96 5.0 7.0 0.00 0.00 0.00 66 1007.7
20260507004736 85 9 5.0 8.0 0.00 0.00 0.00 64 1007.8
20260507004234 84 161 4.0 6.0 0.00 0.00 0.00 65 1007.7
20260507003730 85 4 4.0 4.0 0.00 0.00 0.00 64 1007.6
20260507003225 84 21 1.0 2.0 0.00 0.00 0.00 66 1007.9
20260507002722 85 8 2.0 3.0 0.00 0.00 0.00 64 1007.8
20260507002218 84 292 4.0 6.0 0.00 0.00 0.00 66 1007.8
20260507001715 84 41 4.0 6.0 0.00 0.00 0.00 65 1008.0
20260507001212 85 67 4.0 7.0 0.00 0.00 0.00 66 1008.0
20260507000708 85 31 2.0 3.0 0.00 0.00 0.00 65 1008.1
20260507000205 85 1 2.0 2.0 0.00 0.00 0.00 65 1007.9
20260506235701 85 39 2.0 3.0 0.00 0.00 0.00 65 1008.0
20260506235157 85 34 1.0 2.0 0.00 0.00 0.00 65 1008.0
20260506234654 85 36 6.0 7.0 0.00 0.00 0.00 64 1007.9
20260506234151 85 323 2.0 3.0 0.00 0.00 0.00 64 1008.0
20260506233648 85 75 3.0 6.0 0.00 0.00 0.00 64 1007.9
20260506233145 86 36 3.0 6.0 0.00 0.00 0.00 64 1008.1
20260506232641 85 55 4.0 7.0 0.00 0.00 0.00 63 1008.0
20260506232136 86 350 5.0 9.0 0.00 0.00 0.00 63 1008.1
20260506231634 85 16 3.0 4.0 0.00 0.00 0.00 64 1008.0
20260506231132 85 30 4.0 6.0 0.00 0.00 0.00 63 1008.1
20260506230629 84 71 3.0 4.0 0.00 0.00 0.00 65 1008.0
20260506230126 85 83 3.0 6.0 0.00 0.00 0.00 64 1008.1
20260506225622 85 98 3.0 3.0 0.00 0.00 0.00 65 1007.9
20260506225119 86 46 2.0 2.0 0.00 0.00 0.00 64 1008.1
20260506224615 86 10 4.0 4.0 0.00 0.00 0.00 64 1008.4
20260506224112 85 81 1.0 1.0 0.00 0.00 0.00 65 1008.1
20260506223608 86 15 3.0 6.0 0.00 0.00 0.00 64 1008.2
20260506223104 85 30 2.0 3.0 0.00 0.00 0.00 65 1008.3
20260506222601 84 5 2.0 4.0 0.00 0.00 0.00 66 1008.3
20260506222058 84 118 2.0 3.0 0.00 0.00 0.00 66 1008.4
20260506221555 84 25 3.0 3.0 0.00 0.00 0.00 66 1008.4
20260506221053 84 109 2.0 2.0 0.00 0.00 0.00 66 1008.3
20260506220549 84 28 4.0 4.0 0.00 0.00 0.00 66 1008.2
20260506220045 84 110 3.0 3.0 0.00 0.00 0.00 66 1008.2
20260506215542 85 34 3.0 4.0 0.00 0.00 0.00 66 1008.4
20260506215037 85 90 2.0 2.0 0.00 0.00 0.00 66 1008.3
20260506214535 85 50 1.0 2.0 0.00 0.00 0.00 65 1008.3
20260506214032 85 59 1.0 2.0 0.00 0.00 0.00 65 1008.3
20260506213530 85 348 4.0 4.0 0.00 0.00 0.00 64 1008.3
20260506213027 85 352 3.0 4.0 0.00 0.00 0.00 64 1008.2
20260506212523 86 28 3.0 4.0 0.00 0.00 0.00 64 1008.1
20260506212018 86 337 3.0 4.0 0.00 0.00 0.00 64 1008.2
20260506211514 86 66 2.0 3.0 0.00 0.00 0.00 63 1008.3
20260506211012 86 62 3.0 3.0 0.00 0.00 0.00 63 1008.3
20260506210508 86 40 3.0 4.0 0.00 0.00 0.00 63 1008.4
20260506210005 87 55 2.0 3.0 0.00 0.00 0.00 62 1008.3
20260506205501 87 170 3.0 3.0 0.00 0.00 0.00 62 1008.3
20260506204957 87 54 2.0 2.0 0.00 0.00 0.00 61 1008.5
20260506204456 88 5 4.0 8.0 0.00 0.00 0.00 59 1008.4
20260506203952 88 26 2.0 3.0 0.00 0.00 0.00 59 1008.5
20260506203450 88 293 4.0 4.0 0.00 0.00 0.00 58 1008.7
20260506202946 88 25 5.0 8.0 0.00 0.00 0.00 58 1008.7
20260506202444 89 32 6.0 10.0 0.00 0.00 0.00 57 1008.6
20260506201940 89 88 5.0 7.0 0.00 0.00 0.00 57 1008.7
20260506201438 89 59 6.0 8.0 0.00 0.00 0.00 56 1008.7
20260506200934 89 106 2.0 3.0 0.00 0.00 0.00 56 1008.8
20260506200430 89 37 5.0 8.0 0.00 0.00 0.00 56 1008.5
20260506195927 90 17 5.0 6.0 0.00 0.00 0.00 56 1008.7
20260506195424 90 12 2.0 3.0 0.00 0.00 0.00 55 1008.7
20260506194921 90 22 4.0 6.0 0.00 0.00 0.00 55 1008.5
20260506194418 90 28 6.0 9.0 0.00 0.00 0.00 55 1008.8
20260506193915 91 33 6.0 13.0 0.00 0.00 0.00 54 1008.7
20260506193412 91 32 3.0 4.0 0.00 0.00 0.00 54 1008.7
20260506192908 91 35 9.0 13.0 0.00 0.00 0.00 53 1008.7
20260506192405 91 330 6.0 7.0 0.00 0.00 0.00 53 1008.9
20260506191902 91 71 5.0 8.0 0.00 0.00 0.00 53 1008.8
20260506191358 91 359 10.0 11.0 0.00 0.00 0.00 52 1009.0
20260506190855 92 312 3.0 4.0 0.00 0.00 0.00 53 1008.9
20260506190352 91 44 3.0 3.0 0.00 0.00 0.00 53 1009.1
20260506185849 91 336 8.0 11.0 0.00 0.00 0.00 52 1009.1
20260506185346 91 325 4.0 4.0 0.00 0.00 0.00 52 1009.2
20260506184843 92 340 6.0 8.0 0.00 0.00 0.00 52 1009.5
20260506184340 92 19 3.0 3.0 0.00 0.00 0.00 52 1009.3
20260506183837 91 313 6.0 9.0 0.00 0.00 0.00 53 1009.4
20260506183332 92 8 9.0 11.0 0.00 0.00 0.00 52 1009.3
20260506182830 92 44 3.0 4.0 0.00 0.00 0.00 52 1009.4
20260506182327 92 24 4.0 6.0 0.00 0.00 0.00 53 1009.4
20260506181825 92 349 6.0 10.0 0.00 0.00 0.00 52 1009.5
20260506181322 92 41 4.0 6.0 0.00 0.00 0.00 53 1009.6
20260506180819 93 58 7.0 10.0 0.00 0.00 0.00 53 1009.5
20260506180315 93 358 5.0 6.0 0.00 0.00 0.00 53 1009.6
20260506175811 92 322 6.0 14.0 0.00 0.00 0.00 52 1009.8
20260506175308 92 64 6.0 10.0 0.00 0.00 0.00 53 1009.7
20260506174806 92 5 4.0 6.0 0.00 0.00 0.00 53 1010.0
20260506174303 92 61 3.0 4.0 0.00 0.00 0.00 53 1010.0
20260506173800 92 301 5.0 9.0 0.00 0.00 0.00 53 1009.9
20260506173257 92 55 5.0 7.0 0.00 0.00 0.00 53 1010.1
20260506172754 92 354 3.0 4.0 0.00 0.00 0.00 53 1010.2
20260506172250 92 343 8.0 10.0 0.00 0.00 0.00 55 1010.2
20260506171748 92 43 4.0 6.0 0.00 0.00 0.00 54 1010.3
20260506171245 92 38 4.0 9.0 0.00 0.00 0.00 52 1010.5
20260506170743 91 23 3.0 4.0 0.00 0.00 0.00 54 1010.5
20260506170239 91 40 6.0 10.0 0.00 0.00 0.00 54 1010.7
20260506165738 91 174 7.0 11.0 0.00 0.00 0.00 52 1010.6
20260506165234 91 12 6.0 7.0 0.00 0.00 0.00 54 1010.6
20260506164732 91 336 5.0 7.0 0.00 0.00 0.00 54 1010.8
20260506164228 91 47 7.0 10.0 0.00 0.00 0.00 54 1011.1
20260506163725 91 234 3.0 4.0 0.00 0.00 0.00 55 1011.0
20260506163220 91 20 10.0 11.0 0.00 0.00 0.00 54 1011.1
20260506162716 91 47 4.0 6.0 0.00 0.00 0.00 55 1011.2
20260506162214 91 48 6.0 8.0 0.00 0.00 0.00 54 1011.4
20260506161711 92 17 5.0 7.0 0.00 0.00 0.00 55 1011.5
20260506161208 90 25 6.0 13.0 0.00 0.00 0.00 55 1011.5
20260506160706 90 26 4.0 7.0 0.00 0.00 0.00 58 1011.7
20260506160202 91 23 3.0 6.0 0.00 0.00 0.00 57 1011.8
20260506155700 92 351 4.0 7.0 0.00 0.00 0.00 56 1011.9
20260506155157 91 56 3.0 4.0 0.00 0.00 0.00 56 1012.0
20260506153259 89 12 9.0 13.0 0.00 0.00 0.00 59 1012.7
20260506152756 89 356 7.0 9.0 0.00 0.00 0.00 59 1012.7
20260506152254 89 322 2.0 3.0 0.00 0.00 0.00 60 1012.9
20260506151752 89 36 2.0 3.0 0.00 0.00 0.00 60 1012.8
20260506151248 88 41 2.0 4.0 0.00 0.00 0.00 62 1012.9
20260506150745 88 317 3.0 4.0 0.00 0.00 0.00 61 1012.9
20260506150242 88 334 2.0 3.0 0.00 0.00 0.00 61 1012.9
20260506145739 87 55 6.0 8.0 0.00 0.00 0.00 61 1013.1
20260506145236 87 20 4.0 8.0 0.00 0.00 0.00 61 1013.1
20260506144733 88 95 2.0 4.0 0.00 0.00 0.00 61 1013.4
20260506144230 87 53 4.0 6.0 0.00 0.00 0.00 61 1013.4
20260506143728 87 18 1.0 2.0 0.00 0.00 0.00 60 1013.4
20260506143225 88 5 11.0 15.0 0.00 0.00 0.00 60 1013.5
20260506142724 87 17 7.0 9.0 0.00 0.00 0.00 62 1013.4
20260506142221 88 95 2.0 2.0 0.00 0.00 0.00 61 1013.5
20260506141719 86 63 1.0 1.0 0.00 0.00 0.00 62 1013.7
20260506141217 86 356 2.0 4.0 0.00 0.00 0.00 62 1013.7
20260506140714 86 316 4.0 6.0 0.00 0.00 0.00 63 1013.7
20260506140211 85 25 5.0 7.0 0.00 0.00 0.00 63 1013.9
20260506135708 85 86 3.0 4.0 0.00 0.00 0.00 64 1013.8
20260506135204 85 52 3.0 3.0 0.00 0.00 0.00 63 1013.9
20260506134701 84 51 2.0 2.0 0.00 0.00 0.00 65 1014.1
20260506134157 84 99 2.0 2.0 0.00 0.00 0.00 64 1014.0
20260506133654 85 14 3.0 4.0 0.00 0.00 0.00 63 1014.1
20260506133151 84 326 2.0 3.0 0.00 0.00 0.00 64 1014.1
20260506132649 83 56 5.0 8.0 0.00 0.00 0.00 66 1014.3
20260506132145 83 13 4.0 4.0 0.00 0.00 0.00 66 1014.1
20260506131643 83 48 3.0 3.0 0.00 0.00 0.00 65 1014.4
20260506131139 84 284 3.0 3.0 0.00 0.00 0.00 63 1014.3
20260506130636 84 27 3.0 7.0 0.00 0.00 0.00 63 1014.4
20260506130133 83 54 2.0 3.0 0.00 0.00 0.00 65 1014.5
20260506125631 83 58 2.0 2.0 0.00 0.00 0.00 65 1014.4
20260506125129 82 72 3.0 6.0 0.00 0.00 0.00 65 1014.4
20260506124626 82 352 6.0 9.0 0.00 0.00 0.00 66 1014.5
20260506124124 82 227 1.0 2.0 0.00 0.00 0.00 67 1014.5
20260506123622 81 31 4.0 6.0 0.00 0.00 0.00 68 1014.6
20260506123120 81 55 3.0 4.0 0.00 0.00 0.00 67 1014.5
20260506122616 81 2 2.0 3.0 0.00 0.00 0.00 67 1014.6
20260506122114 81 36 2.0 3.0 0.00 0.00 0.00 68 1014.6
20260506121612 80 86 2.0 3.0 0.00 0.00 0.00 69 1014.7
20260506121108 79 28 2.0 3.0 0.00 0.00 0.00 71 1014.4
20260506120606 79 58 2.0 4.0 0.00 0.00 0.00 71 1014.5
20260506115601 78 78 0.0 1.0 0.00 0.00 0.00 71 1014.4
20260506115059 78 144 1.0 2.0 0.00 0.00 0.00 73 1014.3